Tracking 22881 objects as of 19-Apr-2021
HD Live streaming from Space Station
objects crossing your sky now

STARLINK-1141

Track STARLINK-1141 now!
10-day predictions
STARLINK-1141 is classified as:


NORAD ID: 45051
Int'l Code: 2020-006H
Perigee: 553.3 km
Apogee: 555.4 km
Inclination: 53.1 °
Period: 95.6 minutes
Semi major axis: 6925 km
RCS: Unknown
Launch date: January 29, 2020
Source: United States (US)
Launch site: AIR FORCE EASTERN TEST RANGE (AFETR)
aabbcc
Your satellite tracking list
Your tracking list is empty




NASA's NSSDC Master Catalog

Two Line Element Set (TLE):
1 45051U 20006H   21108.46743474 -.00000067  00000-0  14380-4 0  9998
2 45051  53.0575  25.2841 0001536  75.3170 284.7990 15.06399006 67238
Source of the keplerian elements: AFSPC